Regional Weather Roundup
Issued by NWS

Home | Current Version | Previous Version | Text Only | Print | Product List | Glossary On
Versions: 1 2 3 4 5 6 7 8 9 10 11 12 13 14 15 16 17 18 19 20 21 22 23 24 25 26 27 28 29 30 31 32 33 34 35 36 37 38 39 40 41 42 43 44 45 46 47 48 49 50
000
ASUS43 KOAX 291210
RWRNE

WEATHER ROUNDUP FOR NEBRASKA
NATIONAL WEATHER SERVICE OMAHA NE
700 AM CDT SUN MAR 29 2015

NOTES: SATELLITE DATA IS BEING USED TO AUGMENT CLOUD COVER ABOVE
       12000 FEET.
       "FAIR" INDICATES FEW OR NO CLOUDS BELOW 12,000 FEET WITH NO
       SIGNIFICANT WEATHER AND/OR OBSTRUCTIONS TO VISIBILITY.

  * THESE STATIONS DO NOT REPORT WEATHER SUCH AS RAIN...SNOW OR FOG.

NEZ001>004-019>022-054>056-291300-
NEBRASKA PANHANDLE

CITY           SKY/WX    TMP DP  RH WIND       PRES   REMARKS
SCOTTSBLUFF    CLEAR     45  29  53 NW31G41   30.17R
6HR MIN TEMP:  43; 6HR MAX TEMP:  54;

ALLIANCE       CLEAR     45  28  51 NW29G40   30.12R
6HR MIN TEMP:  44; 6HR MAX TEMP:  55;

CHADRON        CLEAR     46  30  53 NW28G36   30.14S
6HR MIN TEMP:  46; 6HR MAX TEMP:  54;

KIMBALL        CLEAR     42  22  44 NW15G24   30.15R
SIDNEY         CLEAR     43  20  39 NW18      30.17R
6HR MIN TEMP:  40; 6HR MAX TEMP:  61;

$$

NEZ057>060-069>072-079>082-291300-
SOUTHWEST NEBRASKA

CITY           SKY/WX    TMP DP  RH WIND       PRES   REMARKS
NORTH PLATTE   CLEAR     47  24  40 W18       30.02R
6HR MIN TEMP:  38; 6HR MAX TEMP:  63;

IMPERIAL         N/A     48  24  39 NW13      30.08R
6HR MIN TEMP:  47; 6HR MAX TEMP:  78;

LEXINGTON      CLEAR     47  34  60 NW12      29.98R
MCCOOK         PTCLDY    52  29  41 NW13      30.02R
6HR MIN TEMP:  51; 6HR MAX TEMP:  70; 6HR PCP: TRACE;

OGALLALA       CLEAR     46  22  39 NW12G17   30.09R
$$

NEZ005>010-023>029-035>040-094-291300-
NORTH CENTRAL NEBRASKA

CITY           SKY/WX    TMP DP  RH WIND       PRES   REMARKS
VALENTINE      CLOUDY    49  34  56 NW31G47   29.96R
6HR MIN TEMP:  41; 6HR MAX TEMP:  58;

AINSWORTH      CLOUDY    49  33  55 W26G40    29.97R
BROKEN BOW     CLEAR     47  34  60 NW16      29.94R
6HR MIN TEMP:  45; 6HR MAX TEMP:  63;

O`NEILL        CLEAR     51  33  50 W26       29.88R
ORD            CLEAR     40  31  70 NW8       29.91R WCI  34
6HR MIN TEMP:  39; 6HR MAX TEMP:  51;

THEDFORD       CLEAR     47  25  43 NW23G30   30.02R
$$

NEZ041-046>049-061>064-073>077-083>087-291300-
SOUTH CENTRAL NEBRASKA

CITY           SKY/WX    TMP DP  RH WIND       PRES   REMARKS
GRAND ISLAND   CLOUDY    43  36  76 W9        29.92R
6HR MIN TEMP:  39; 6HR MAX TEMP:  51;

AURORA         CLOUDY    47  39  74 NW8       29.90R
HASTINGS       CLOUDY    49  38  65 NW10      29.92R
6HR MIN TEMP:  42; 6HR MAX TEMP:  50;

HEBRON         CLOUDY    45  39  78 CALM      29.91R
HOLDREGE       MOCLDY    49  35  59 NW8       29.96R
KEARNEY *      MOCLDY    46  32  57 NW7       29.95R
YORK           CLOUDY    39  37  93 W7        29.91R WCI  34
$$

NEZ011>018-030>034-042>045-291300-
NORTHEAST NEBRASKA

CITY           SKY/WX    TMP DP  RH WIND       PRES   REMARKS
NORFOLK        MOCLDY    46  37  71 W10       29.84R
6HR MIN TEMP:  41; 6HR MAX TEMP:  47;

ALBION         MOCLDY    40  33  75 CALM      29.88R
BLAIR          MOCLDY    41  34  76 S10       29.86R
COLUMBUS *     MOCLDY    37  30  75 SW6       29.89R WCI  33
FREMONT        MOCLDY    44  36  75 S5        29.87R
TEKAMAH        MOCLDY    40  33  76 S7        29.85R
6HR MIN TEMP:  39; 6HR MAX TEMP:  46;

WAYNE          MOCLDY    42  36  79 W9        29.83R
$$

NEZ050>053-065>068-078-088>093-291300-
SOUTHEAST NEBRASKA

CITY           SKY/WX    TMP DP  RH WIND       PRES   REMARKS
LINCOLN        CLOUDY    42  37  82 S7        29.90R
6HR MIN TEMP:  41; 6HR MAX TEMP:  46;

OMAHA EPPLEY   MOCLDY    42  34  73 S10       29.87S
6HR MIN TEMP:  42; 6HR MAX TEMP:  44; 6HR PCP: TRACE;

BEATRICE       MOCLDY    43  37  82 CALM      29.91F
FALLS CITY     CLOUDY    42  35  76 S6        29.94R
6HR MIN TEMP:  40; 6HR MAX TEMP:  43;

NEBRASKA CITY  MOCLDY    40  35  81 S6        29.91F
PLATTSMOUTH    CLOUDY    40  34  77 S9        29.89S WCI  34
$$

NEZ044-045-051>053-067-291300-
OMAHA AREA

CITY           SKY/WX    TMP DP  RH WIND       PRES   REMARKS
OMAHA EPPLEY   MOCLDY    42  34  73 S10       29.87S
6HR MIN TEMP:  42; 6HR MAX TEMP:  44; 6HR PCP: TRACE;

BLAIR          MOCLDY    41  34  76 S10       29.86R
FREMONT        MOCLDY    44  36  75 S5        29.87R
MILLARD        MOCLDY    41  35  77 CALM      29.88S
OFFUTT AFB     MOCLDY    41  35  79 SE6       29.88S
PLATTSMOUTH    CLOUDY    40  34  77 S9        29.89S WCI  34
WAHOO          FAIR      38  33  80 SW5       29.88R WCI  35
$$


USA.gov is the U.S. government's official web portal to all federal, state and local government web resources and services.